Tracking 28902 objects as of 20-May-2024
HD Live streaming from Space Station
objects crossing your sky now

KSF2-C

Track KSF2-C now!
10-day predictions


NORAD ID: 52189
Int'l Code: 2022-033AJ
Perigee: 388.3 km
Apogee: 395.7 km
Inclination: 97.3 °
Period: 92.3 minutes
Semi major axis: 6762 km
RCS: Unknown
Launch date: April 1, 2022
Source: Luxembourg (LUXE)
Launch site: AIR FORCE EASTERN TEST RANGE (AFETR)
Your satellite tracking list
Your tracking list is empty




NASA's NSSDC Master Catalog

Two Line Element Set (TLE):
1 52189U 22033AJ  24140.02419070  .00075309  00000-0  89253-3 0  9993
2 52189  97.3375 230.6837 0005471  41.0463 319.1205 15.60970939119332
Source of the keplerian elements: AFSPC